Tracking 17142 objects as of 27-May-2015
HD Live streaming from Space Station

TERRIERS

Track TERRIERS now!
10-day predictions
TERRIERS is classified as:


NORAD ID: 25735
Int'l Code: 1999-026A
Perigee: 451.9 km
Apogee: 457.7 km
Inclination: 97.1 °
Period: 93.5 minutes
Semi major axis: 6825 km
RCS: 0.4968 m2 (medium)
Launch date: May 18, 1999
Source: United States (US)
Your satellite tracking list
Your tracking list is empty





NASA's NSSDC Master Catalog

Two Line Element Set (TLE):
1 25735U 99026A   15147.56095944  .00003971  00000-0  10331-3 0  9999
2 25735 097.1132 316.7323 0004269 215.0745 218.8920 15.39470435890409

Source of the keplerian elements: AFSPC

N2YO: 371